{"data":{"norad_id":63229,"epoch":"2026-05-25T03:01:10.866144Z","epoch_age_seconds":57343,"freshness":"FRESH","line1":"1 63229U 25052V   26145.12582021  .00004188  00000+0  18510-3 0  9993","line2":"2 63229  97.3980  38.0424 0003497 213.0650 147.0368 15.22247341 66339","mean_motion":15.22247341,"eccentricity":0.0003497,"inclination_deg":97.398,"raan_deg":38.0424,"arg_perigee_deg":213.065,"mean_anomaly_deg":147.0368,"bstar":0.0001851,"rev_number":6633,"period_min":94.596979164636,"perigee_km":496.65863526969,"apogee_km":501.46854936396,"semimajor_km":6877.2005923168,"source":"CELESTRAK","updated_at":"2026-05-25T13:38:03.580208Z"}}